Regional Weather Roundup
Issued by NWS

Home | Current Version | Previous Version | Text Only | Print | Product List | Glossary Off
Versions: 1 2 3 4 5 6 7 8 9 10 11 12 13 14 15 16 17 18 19 20 21 22 23 24 25 26 27 28 29 30 31 32 33 34 35 36 37 38 39 40 41 42 43 44 45 46 47 48 49 50

000
ASUS43 KLSX 290157
RWRMO

WEATHER SUMMARY FOR MISSOURI
NATIONAL WEATHER SERVICE SPRINGFIELD MO
900 PM CDT SAT MAY 28 2016

NOTE: "FAIR" INDICATES FEW OR NO CLOUDS BELOW 12,000 FEET WITH NO
       SIGNIFICANT WEATHER AND/OR OBSTRUCTIONS TO VISIBILITY.
       CURRENT SKY AND/OR WEATHER CONDITIONS ARE NOT AVAILABLE FOR
       CHILLICOTHE AND FARMINGTON.

MOZ001>031-035>038-043-044-053-054-290300-
...NORTHERN AND WESTERN MISSOURI...

CITY           SKY/WX    TMP DP  RH WIND       PRES   REMARKS
KANSAS CTY INT PTCLDY    68  60  75 SW5       29.95R
ST JOSEPH      CLEAR     71  60  68 SW6       29.93R
CHILLICOTHE      N/A     69  61  75 CALM      29.94R

$$
MOZ066>068-077>081-088>096-101>105-290300-
...SOUTHWEST MISSOURI...

CITY           SKY/WX    TMP DP  RH WIND       PRES   REMARKS
SPRINGFIELD    CLEAR     72  62  71 W7        29.99R
JOPLIN         CLEAR     69  63  81 S6        29.99R
BRANSON        PTCLDY    75  64  69 W5        30.02R

$$
MOZ032>034-039>042-045>050-055>058-069>072-290300-
...CENTRAL MISSOURI...

CITY           SKY/WX    TMP DP  RH WIND       PRES   REMARKS
COLUMBIA       NOT AVBL
JEFFERSON CITY CLOUDY    76  62  62 VRB3      29.95R
ROLLA          CLOUDY    69  64  84 SE7       30.00R
SEDALIA        CLEAR     73  62  68 W6        29.97R
WARRENSBURG    PTCLDY    70  61  73 SW5       29.95R

$$
MOZ051-052-059>065-290300-
...EAST CENTRAL MISSOURI...

CITY           SKY/WX    TMP DP  RH WIND       PRES   REMARKS
ST LOUIS INTL  MOCLDY    79  66  64 S13G20    29.95R

$$
MOZ072>076-082>087-097>100-106>115-290300-
...SOUTH CENTRAL AND SOUTHEAST MISSOURI...

CITY           SKY/WX    TMP DP  RH WIND       PRES   REMARKS
CAPE GIRARDEAU PTCLDY    74  67  78 S6        30.01R
POPLAR BLUFF   CLOUDY    76  69  79 S6        30.00R
WEST PLAINS    PTCLDY    73  65  75 S6        30.02S

$$



USA.gov is the U.S. government's official web portal to all federal, state and local government web resources and services.